{"data":{"norad_id":67216,"epoch":"2026-05-25T00:03:52.663104Z","epoch_age_seconds":78247,"freshness":"FRESH","line1":"1 67216U 25304AA  26145.00269286  .00003070  00000+0  26490-3 0  9990","line2":"2 67216  70.0023 342.1184 0002437 269.1240  90.9639 14.98338016 25319","mean_motion":14.98338016,"eccentricity":0.0002437,"inclination_deg":70.0023,"raan_deg":342.1184,"arg_perigee_deg":269.124,"mean_anomaly_deg":90.9639,"bstar":0.0002649,"rev_number":2531,"period_min":96.1064849602,"perigee_km":570.33734626966,"apogee_km":573.72485820269,"semimajor_km":6950.1681022362,"source":"CELESTRAK","updated_at":"2026-05-25T13:38:21.513395Z"}}